Waterloo, IA

11:23 PM CDT on July 22, 2017 (GMT -0500)
Waterloo Municipal

Weather History for KALO - June, 2013

Change the Weather History Date:

Thursday, June 13, 2013

  Actual Average Record
Temperature  
Mean Temperature 71 °F 70 °F  
Max Temperature 81 °F 81 °F 100 °F (1987)
Min Temperature 61 °F 58 °F 40 °F (1969)
Degree Days  
Heating Degree Days 0 1  
Month to date heating degree days 38 18  
Since 1 June heating degree days 38 18  
Since 1 July heating degree days 7271 7022  
Cooling Degree Days 6 5  
Month to date cooling degree days 28 54  
Year to date cooling degree days 81 110  
Since 1 June cooling degree days 28 54  
Growing Degree Days 21 (Base 50)    
Moisture  
Dew Point 58 °F    
Average Humidity 66    
Maximum Humidity 93    
Minimum Humidity 39    
Precipitation  
Precipitation 0.00 in 0.16 in 3.95 in (1947)
Month to date precipitation 2.08 2.11  
Year to date precipitation 25.66 14.23  
Snow  
Snow 0.00 in 0.00 in - ()
Month to date snowfall 0.0 0.0  
Since 1 June snowfall 0.0 0.0  
Since 1 July snowfall 50.0 35.3  
Snow Depth 0.00 in    
Sea Level Pressure  
Sea Level Pressure 29.97 in    
Wind  
Wind Speed 8 mph (North)    
Max Wind Speed 16 mph    
Max Gust Speed 23 mph    
Visibility 10 miles    
Events      
T = Trace of Precipitation, MM = Missing Value Source: NWS Daily Summary

Daily Weather History Graph

Daily Weather History Graph

Search for Another Location

Airport or City:

Trip Planner

Search our weather history database for the weather conditions in past years. The results will help you decide how hot, cold, wet, or windy it might be!

Date:

Astronomy

Jun. 13, 2013 Rise Set
Actual Time 5:31 AM CDT 8:48 PM CDT
Civil Twilight 4:56 AM CDT 9:23 PM CDT
Nautical Twilight 4:11 AM CDT 10:08 PM CDT
Astronomical Twilight 3:16 AM CDT 11:03 PM CDT
Moon 10:13 AM CDT (6/13) 11:49 PM CDT (6/13)
Length of Visible Light 16h 26m
Length of Day
15h 16m
Waxing Crescent, 22% of the Moon is Illuminated
Jun 13
Waxing Crescent
Jun 16
First Quarter
Jun 23
Full
Jun 29
Last Quarter
Jul 8
New

Hourly Weather History & Observations

Time (CDT) Temp. Heat Index Dew Point Humidity Pressure Visibility Wind Dir Wind Speed Gust Speed Precip Events Conditions
12:11 AM 68.0 °F - 64.4 °F 88% 29.82 in 10.0 mi North 17.3 mph 24.2 mph N/A   Overcast
12:36 AM 68.0 °F - 64.4 °F 88% 29.84 in 10.0 mi NNW 12.7 mph - N/A   Overcast
12:54 AM 68.0 °F - 64.9 °F 90% 29.83 in 10.0 mi NNW 15.0 mph - N/A   Overcast
1:18 AM 66.2 °F - 64.4 °F 94% 29.87 in 10.0 mi NNW 15.0 mph - N/A   Scattered Clouds
1:54 AM 66.0 °F - 63.0 °F 90% 29.87 in 10.0 mi North 15.0 mph - N/A   Clear
2:54 AM 64.0 °F - 63.0 °F 96% 29.88 in 10.0 mi North 8.1 mph - N/A   Clear
3:54 AM 64.0 °F - 62.1 °F 93% 29.90 in 9.0 mi NW 6.9 mph - N/A   Clear
4:54 AM 62.1 °F - 60.1 °F 93% 29.92 in 10.0 mi North 9.2 mph - N/A   Clear
5:54 AM 61.0 °F - 57.9 °F 90% 29.94 in 10.0 mi WNW 3.5 mph - N/A   Clear
6:54 AM 63.0 °F - 57.9 °F 84% 29.96 in 10.0 mi NW 6.9 mph - N/A   Clear
7:54 AM 64.9 °F - 57.9 °F 78% 29.99 in 10.0 mi NW 8.1 mph - N/A   Clear
8:54 AM 68.0 °F - 57.9 °F 70% 30.02 in 10.0 mi NNW 9.2 mph - N/A   Clear
9:54 AM 71.1 °F - 59.0 °F 66% 30.02 in 10.0 mi North 8.1 mph - N/A   Clear
10:54 AM 73.9 °F - 57.9 °F 57% 30.02 in 10.0 mi NW 8.1 mph - N/A   Clear
11:54 AM 75.9 °F - 57.9 °F 54% 30.03 in 10.0 mi NNE 10.4 mph - N/A   Clear
12:54 PM 78.1 °F - 57.0 °F 48% 30.03 in 10.0 mi North 11.5 mph 16.1 mph N/A   Clear
1:54 PM 80.1 °F 80.0 °F 54.0 °F 40% 30.02 in 10.0 mi NNW 10.4 mph - N/A   Scattered Clouds
2:54 PM 80.1 °F 80.0 °F 54.0 °F 40% 30.01 in 10.0 mi North 8.1 mph - N/A   Clear
3:54 PM 80.1 °F 80.1 °F 55.0 °F 42% 30.00 in 10.0 mi NE 11.5 mph - N/A   Clear
4:54 PM 80.1 °F 79.9 °F 53.1 °F 39% 30.01 in 10.0 mi North 10.4 mph - N/A   Clear
5:54 PM 81.0 °F 80.5 °F 54.0 °F 39% 30.03 in 10.0 mi North 4.6 mph - N/A   Clear
6:54 PM 80.1 °F 79.9 °F 53.1 °F 39% 30.03 in 10.0 mi NW 8.1 mph - N/A   Mostly Cloudy
7:54 PM 75.0 °F - 54.0 °F 48% 30.02 in 10.0 mi NE 5.8 mph - N/A   Clear
8:54 PM 71.1 °F - 57.0 °F 61% 30.01 in 10.0 mi NE 4.6 mph - N/A   Clear
9:54 PM 66.0 °F - 57.0 °F 73% 30.01 in 10.0 mi NNE 6.9 mph - N/A   Clear
10:54 PM 64.9 °F - 55.9 °F 73% 30.01 in 10.0 mi ENE 8.1 mph - N/A   Clear
11:54 PM 63.0 °F - 57.0 °F 81% 30.01 in 10.0 mi ENE 6.9 mph - N/A   Clear